COSMOS 2364 (GLONASS)

Satellite information

Favourite Embed

Satellite Type and Status

PAYLOADIN ORBIT

Key statistics

Satellite COSMOS 2364 (GLONASS) at a glance.

Uptime

9750

Days in orbit

Revolutions

≈ 2.1

Per day

Orbit

MEO

Medium Earth Orbit

Inclination

64.1

Latest

Satellite identification and parameters

Extended collection of information and parameters for COSMOS 2364 (GLONASS).

Object identification

Identified? True

Debris? False

Object name: COSMOS 2364 (GLONASS)

International designator: 1998-077A

Object number (NORAD): 25593

Object ID (CCSDS): 25593

Country: COMMONWEALTH OF INDEPENDENT STATES (CIS)

Current information (Y/N): Y

RCS size: LARGE

Orbital parameters

Period: 675.731 minutes

Inclination: 64.1442 deg

SMA: 25507.973 km

Apoapsis: 19209.997 km

Periapsis: 19049.678 km

RAAN: 70.0819 deg

Eccentricy: 0.00314253

Argument of periapsis: 54.2092 deg

Mean anomaly: 132.0635 deg

Mean motion: 2.1310265 rev/day

Mean motion (dot): 0.00000037 rev/day2

B* drag term: 0.0 1/REarth

Two-line elements (TLE)

Creation date: Sept. 8, 2025, 3:16 a.m.

Reference frame: TEME

Reference center: EARTH

Epoch: Sept. 7, 2025, 1:35 p.m. UTC

TLE line 0: 0 COSMOS 2364 (GLONASS)

TLE line 1: 1 25593U 98077A 25250.56656594 .00000037 00000-0 00000-0 0 9995

TLE line 2: 2 25593 64.1442 70.0819 0031425 54.2092 132.0635 2.13102650207637

Live tracking on map

Real-time ground track for satellite COSMOS 2364 (GLONASS).

In-orbit conjunctions

There are no conjunctions computed for COSMOS 2364 (GLONASS), at the moment. Check back to stay up to date, as we update our databases every day.

Go to all conjunctions

Associated space launch

GLONASS navigation satellites

COSMOS 2364 (GLONASS) was lifted into orbit during the mission ‘Proton | Uragan 72 to 74’, on board a Proton space rocket.

The launch took place on Dec. 30, 1998, 6:35 p.m. from 200/39 (200L).

For more information about the launch, click the button.

Launch to space Proton | Uragan 72 to 74
Proton | Uragan 72 to 74

Agency: N/A

Status: Launch Successful

Launch date: Dec. 30, 1998, 6:35 p.m. UTC

Rocket: Proton

Launch pad: 200/39 (200L)

Location: Baikonur Cosmodrome, Republic of Kazakhstan

...

Latest news about this satellite

There are no fresh news available about this satellite. Check back as we update our databases every day.


Newsletter sign-up

Weekly statistics, charts and insights to help you stay on top of the space industry.